Location: Unspecified
(0.0000°N, 0.0000°E)
Time: 18:18:09
(UTC+00:00)

Vanguard 3 - Pass Details

Date: 29 September 2023
Orbit: 507 x 3241 km, 33.3° (Epoch: 29 November)

Event Time Altitude Azimuth Distance (km) Brightness Sun altitude
Rises 09:31:16 0° 214° (SW) 5,527 11.2 55.1°
Reaches altitude 10° 09:36:58 10° 194° (SSW) 5,053 11.3 56.6°
Maximum altitude 09:45:49 17° 159° (SSE) 5,109 11.6 58.8°
Drops below altitude 10° 09:56:15 10° 125° (SE) 6,102 12.1 61.4°
Sets 10:04:24 0° 107° (ESE) 7,201 12.4 63.4°
